Location: Borojevi?i
(45.0486°N, 16.2297°E)
Time: 05:17:19
(UTC+00:00)

Cosmos 1802 Rocket - Pass Details

Date: 08 August 2020
Orbit: 953 x 1012 km, 82.9° (Epoch: 19 September)

Event Time Altitude Azimuth Distance (km) Brightness Sun altitude
Exits shadow 21:13:53 52° 133° (SE) 1,237 4.1 -24.5°
Maximum altitude 21:15:00 60° 93° (E) 1,148 4.1 -24.6°
Drops below altitude 10° 21:21:16 10° 15° (NNE) 2,778 7.0 -25.1°
Sets 21:23:49 0° 12° (NNE) 3,723 7.8 -25.3°
